| time (UTC) | temp F | wind direction | speed MPH | gust MPH | rain 1hr in | rain 24hr in | rain mn in | humidity % | barometer mb |
| 20260504140733 | 68 | 120 | 3.0 | 0.0 | 0.00 | 0.00 | 0.00 | 10 | 1016.0 |
| 20260504130729 | 64 | 0 | 1.0 | 0.0 | 0.00 | 0.00 | 0.00 | 10 | 1016.0 |
| 20260504080707 | 57 | 100 | 4.0 | 2.0 | 0.00 | 0.00 | 0.00 | 84 | 1016.0 |
| 20260504050654 | 59 | 112 | 3.0 | 1.0 | 0.00 | 0.00 | 0.00 | 84 | 1017.0 |
| 20260504045151 | 58 | 112 | 3.0 | 1.0 | 0.00 | 0.00 | 0.00 | 84 | 1017.0 |
| 20260504043651 | 59 | 112 | 3.0 | 1.0 | 0.00 | 0.00 | 0.00 | 84 | 1017.0 |
| 20260504042152 | 58 | 107 | 3.0 | 1.0 | 0.01 | 0.00 | 0.00 | 84 | 1017.0 |
| 20260504040648 | 59 | 107 | 3.0 | 2.0 | 0.01 | 0.00 | 0.00 | 84 | 1017.0 |
| 20260504035146 | 58 | 107 | 3.0 | 1.0 | 0.00 | 0.00 | 0.00 | 86 | 1017.0 |
| 20260504033646 | 59 | 107 | 3.0 | 2.0 | 0.00 | 0.00 | 0.00 | 85 | 1017.0 |
| 20260504032145 | 58 | 107 | 4.0 | 1.0 | 0.00 | 0.00 | 0.00 | 85 | 1017.0 |
| 20260504030645 | 59 | 107 | 4.0 | 2.0 | 0.00 | 0.00 | 0.00 | 85 | 1017.0 |
| 20260504025144 | 58 | 100 | 3.0 | 0.0 | 0.00 | 0.00 | 0.00 | 84 | 1017.0 |
| 20260504023644 | 59 | 100 | 3.0 | 0.0 | 0.00 | 0.00 | 0.00 | 84 | 1017.0 |
| 20260504022143 | 60 | 100 | 3.0 | 0.0 | 0.00 | 0.00 | 0.00 | 84 | 1016.0 |
| 20260504020643 | 62 | 100 | 3.0 | 0.0 | 0.00 | 0.00 | 0.00 | 85 | 1016.0 |
| 20260504015142 | 64 | 100 | 3.0 | 0.0 | 0.00 | 0.00 | 0.00 | 86 | 1016.0 |
| 20260504013643 | 67 | 100 | 3.0 | 0.0 | 0.00 | 0.00 | 0.00 | 88 | 1016.0 |
| 20260504012141 | 69 | 100 | 3.0 | 0.0 | 0.00 | 0.00 | 0.00 | 89 | 1015.0 |
| 20260504010640 | 59 | 107 | 4.0 | 1.0 | 0.00 | 0.00 | 0.00 | 82 | 1015.0 |
| 20260504005139 | 60 | 107 | 4.0 | 1.0 | 0.00 | 0.00 | 0.00 | 82 | 1015.0 |
| 20260504003637 | 61 | 107 | 4.0 | 2.0 | 0.00 | 0.00 | 0.00 | 82 | 1015.0 |
| 20260504002135 | 60 | 125 | 1.0 | 4.0 | 0.00 | 0.00 | 0.00 | 80 | 1014.0 |
| 20260504000634 | 61 | 125 | 1.0 | 4.0 | 0.00 | 0.00 | 0.00 | 80 | 1014.0 |
| 20260503235132 | 62 | 125 | 1.0 | 4.0 | 0.00 | 0.00 | 0.00 | 80 | 1014.0 |
| 20260503233631 | 63 | 125 | 1.0 | 4.0 | 0.00 | 0.00 | 0.00 | 80 | 1013.0 |
| 20260503232129 | 62 | 95 | 1.0 | 1.0 | 0.05 | 0.00 | 0.00 | 80 | 1012.0 |
| 20260503230628 | 63 | 95 | 1.0 | 1.0 | 0.00 | 0.00 | 0.00 | 80 | 1012.0 |
| 20260503225125 | 64 | 95 | 1.0 | 1.0 | 0.00 | 0.00 | 0.00 | 80 | 1012.0 |
| 20260503223625 | 65 | 95 | 2.0 | 1.0 | 0.00 | 0.00 | 0.00 | 80 | 1012.0 |
| 20260503222123 | 63 | 0 | 1.0 | 0.0 | 0.00 | 0.00 | 0.00 | 81 | 1011.0 |
| 20260503220622 | 64 | 0 | 1.0 | 0.0 | 0.00 | 0.00 | 0.00 | 81 | 1011.0 |
| 20260503215122 | 65 | 0 | 1.0 | 0.0 | 0.00 | 0.00 | 0.00 | 80 | 1011.0 |
| 20260503213621 | 66 | 0 | 1.0 | 0.0 | 0.00 | 0.00 | 0.00 | 80 | 1011.0 |
| 20260503212121 | 67 | 0 | 1.0 | 0.0 | 0.00 | 0.00 | 0.00 | 80 | 1011.0 |
| 20260503210620 | 68 | 0 | 1.0 | 0.0 | 0.00 | 0.00 | 0.00 | 80 | 1011.0 |
| 20260503205120 | 70 | 0 | 2.0 | 0.0 | 0.00 | 0.00 | 0.00 | 80 | 1011.0 |
| 20260503203618 | 71 | 0 | 2.0 | 0.0 | 0.00 | 0.00 | 0.00 | 81 | 1011.0 |
| 20260503202118 | 70 | 290 | 8.0 | 0.0 | 0.00 | 0.00 | 0.00 | 76 | 1011.0 |
| 20260503200614 | 71 | 290 | 8.0 | 0.0 | 0.00 | 0.00 | 0.00 | 74 | 1011.0 |
| 20260503195114 | 72 | 290 | 8.0 | 0.0 | 0.00 | 0.00 | 0.00 | 71 | 1011.0 |
| 20260503193614 | 73 | 290 | 8.0 | 0.0 | 0.00 | 0.00 | 0.00 | 71 | 1011.0 |
| 20260503192112 | 73 | 290 | 8.0 | 0.0 | 0.00 | 0.00 | 0.00 | 71 | 1011.0 |
| 20260503190612 | 73 | 290 | 8.0 | 0.0 | 0.00 | 0.00 | 0.00 | 72 | 1011.0 |
| 20260503185108 | 73 | 310 | 6.0 | 0.0 | 0.00 | 0.00 | 0.00 | 72 | 1011.0 |
| 20260503183608 | 74 | 310 | 6.0 | 0.0 | 0.00 | 0.00 | 0.00 | 72 | 1011.0 |
| 20260503182107 | 74 | 310 | 6.0 | 0.0 | 0.00 | 0.00 | 0.00 | 72 | 1012.0 |
| 20260503180606 | 74 | 300 | 8.0 | 0.0 | 0.00 | 0.00 | 0.00 | 73 | 1012.0 |
| 20260503175103 | 75 | 300 | 8.0 | 0.0 | 0.00 | 0.00 | 0.00 | 74 | 1012.0 |
| 20260503173557 | 72 | 300 | 8.0 | 0.0 | 0.00 | 0.00 | 0.00 | 77 | 1013.0 |
| 20260503172056 | 73 | 300 | 8.0 | 0.0 | 0.00 | 0.00 | 0.00 | 77 | 1014.0 |
| 20260503170555 | 74 | 277 | 3.0 | 2.0 | 0.00 | 0.00 | 0.00 | 78 | 1014.0 |
| 20260503150545 | 68 | 283 | 4.0 | 2.0 | 0.00 | 0.00 | 0.00 | 83 | 1016.0 |